Theta_e
295 296 296 297 298 301 302 302 301 302 302 302 303 304 306 307 305 305 304 305 305 304 304 302 302 303 303 301 299 299 298 298
295 295 296 296 296 296 298 298 297 298 298 297 297 297 299 300 299 298 298 298 298 297 296 294 294 294 294 293 293 293 293 292
294 294 294 294 294 294 294 294 294 294 294 293 294 294 295 294 294 294 293 292 291 291 291 291 290 290 290 289 289 289 288 289
292 292 292 292 292 292 292 292 291 291 291 290 291 291 290 290 289 289 289 289 289 289 289 288 287 287 287 287 287 287 287 287
292 291 291 291 291 290 290 290 290 289 289 288 288 288 288 288 288 287 287 287 286 286 285 285 285 286 285 286 286 286 286 286
292 292 291 290 290 290 289 289 289 289 288 287 286 287 287 286 285 285 285 284 284 284 284 284 285 286 285 285 285 284 284 284
293 291 290 290 289 289 288 288 288 287 286 286 285 284 284 284 284 284 283 283 283 283 283 283 283 289 290 287 284 283 283 283
293 292 291 290 290 288 287 286 285 285 284 284 283 283 283 283 283 282 282 282 282 282 282 282 282 288 289 288 284 282 282 282
293 291 290 289 288 287 285 284 283 283 283 283 283 282 282 282 281 281 281 281 281 280 280 280 282 287 288 287 284 284 284 284
293 291 289 289 287 285 284 283 283 282 282 281 281 280 280 279 280 280 279 279 279 281 279 278 278 286 287 286 283 284 284 284
290 289 288 286 285 284 283 282 282 281 281 280 279 277 277 278 277 278 278 280 280 279 277 275 273 283 286 285 281 279 283 284
288 287 286 285 284 283 281 281 280 279 278 277 277 276 276 275 276 276 278 277 276 275 274 273 275 278 285 286 282 282 283 283
284 283 283 284 283 281 280 278 276 276 275 273 272 276 275 273 275 274 273 270 268 268 272 275 276 280 282 284 285 286 282 280
281 280 278 279 281 279 276 275 274 272 270 270 274 274 275 274 272 271 269 268 270 271 270 273 276 275 281 282 284 285 283 282
279 279 277 276 276 276 275 274 271 273 273 274 273 272 272 274 274 270 267 267 269 270 273 273 274 274 275 278 280 281 281 283
279 279 275 274 272 272 272 273 273 272 272 272 271 271 271 272 271 271 271 270 266 266 273 272 269 274 282 282 281 282 282 281
274 274 272 271 270 269 270 271 272 271 270 270 269 269 269 268 267 272 274 276 277 278 275 275 280 281 281 281 281 281 280 271
274 272 270 267 266 264 266 267 268 268 266 265 265 265 262 261 260 260 265 273 275 276 276 278 278 278 279 279 278 276 271 259
270 268 267 265 265 263 259 260 260 262 263 263 261 260 258 258 258 257 258 258 260 269 273 276 275 276 275 275 268 258 260 254
266 264 265 267 265 259 259 259 259 260 259 258 257 256 258 257 256 256 254 254 254 255 265 264 272 273 271 270 254 254 253 252
Wind_Speed
6 7 4 5 5 5 5 5 5 6 6 5 6 6 5 9 8 7 5 5 6 7 7 7 7 6 6 5 5 5 4 4
5 5 5 5 5 5 6 6 5 5 6 7 6 6 7 10 7 6 6 6 7 7 7 7 6 6 7 6 6 7 6 5
7 7 6 6 5 5 4 6 4 5 7 7 7 7 11 9 7 6 8 6 7 7 7 7 7 6 6 6 5 6 5 5
6 7 6 6 6 5 5 6 5 5 8 7 8 10 9 8 7 6 7 7 7 7 7 6 6 6 6 5 5 5 4 4
7 7 7 6 6 6 5 5 5 6 8 8 7 8 7 8 7 7 5 7 6 6 6 6 5 6 5 5 5 5 4 4
10 8 8 7 6 6 5 5 5 8 8 7 6 7 6 8 7 6 6 5 5 6 6 6 5 4 4 5 5 5 5 5
11 11 11 11 9 8 7 6 6 8 8 6 7 6 6 7 6 6 6 6 6 6 6 6 4 6 6 5 3 4 4 5
14 13 12 11 10 10 8 7 7 8 6 7 6 6 6 6 6 6 6 5 6 6 5 4 2 7 7 7 4 4 4 4
13 12 11 9 8 9 8 8 8 7 7 6 6 6 5 6 6 5 4 5 3 2 2 1 3 7 8 7 4 5 5 4
9 11 10 12 11 11 9 8 9 8 7 5 5 5 5 5 5 4 3 2 2 2 4 4 3 6 7 6 2 5 5 4
12 12 13 11 12 13 11 9 8 7 6 5 5 5 5 5 4 2 2 2 1 3 2 3 3 6 7 6 1 2 4 3
11 12 12 13 13 12 10 8 6 6 6 5 4 5 4 4 2 2 3 4 5 3 4 4 2 5 9 10 1 3 3 5
9 9 9 11 12 11 10 7 6 6 5 5 3 3 3 4 3 3 4 4 3 3 2 2 4 7 8 11 11 10 5 5
9 10 5 6 9 12 8 8 7 7 6 4 5 3 3 4 4 3 4 3 1 2 2 2 2 2 8 11 12 12 8 5
11 11 9 6 6 8 10 9 8 8 6 5 5 4 3 3 3 3 2 1 1 1 1 1 2 2 2 3 4 7 7 9
7 9 7 6 7 6 7 7 7 6 5 5 4 4 3 3 2 1 2 3 2 3 1 1 3 3 11 10 6 6 9 9
6 7 7 7 7 6 5 6 9 8 5 4 4 3 2 2 1 3 4 2 2 2 2 1 5 10 13 13 13 12 15 3
10 8 9 8 7 5 3 4 5 6 6 4 4 4 3 2 3 2 4 3 4 4 5 4 6 9 10 11 12 12 9 3
7 7 8 8 7 7 5 5 5 5 6 5 4 4 3 3 3 3 2 0 3 4 5 4 7 6 8 10 6 4 5 1
6 6 6 7 7 6 6 6 6 5 4 4 3 3 3 3 3 3 2 3 3 3 4 4 7 4 9 8 3 1 2 2
Wind_Direction
160 151 139 123 119 102 98 113 114 103 84 78 80 78 102 96 84 77 74 74 79 77 72 68 56 52 61 61 36 59 36 30
156 135 131 111 104 106 107 108 88 83 89 89 77 74 81 84 81 75 73 70 72 71 74 70 64 54 66 60 45 50 36 26
157 147 138 132 128 126 114 104 96 92 88 85 83 79 80 81 79 77 85 72 82 81 77 72 64 55 62 63 53 55 41 22
157 155 151 148 144 136 126 114 99 95 94 82 82 87 90 87 80 76 84 80 72 77 77 73 69 68 59 66 58 51 41 15
164 165 158 155 147 141 130 120 119 99 96 98 95 96 98 95 87 82 78 83 77 74 85 84 82 68 60 53 44 29 17 1
176 169 158 153 150 141 126 124 121 105 101 100 95 94 98 91 88 85 79 85 89 85 68 58 55 37 39 37 30 16 354 353
176 169 170 166 162 152 146 135 121 117 115 108 96 101 99 99 102 95 84 69 66 57 54 45 33 28 30 50 34 21 358 352
184 177 174 170 161 155 140 121 115 117 111 107 112 109 102 102 91 76 66 65 61 54 50 46 29 33 36 38 43 33 23 5
182 175 166 147 133 121 121 123 125 119 111 114 120 111 108 98 91 81 75 72 72 55 55 29 17 30 37 39 35 21 357 346
172 155 144 147 139 132 129 132 133 131 130 136 131 119 109 101 97 81 76 63 45 6 16 18 352 16 27 33 20 356 339 327
151 145 144 145 140 140 147 145 142 144 136 119 114 116 110 109 107 102 101 80 47 26 8 318 311 333 2 9 253 298 324 299
142 151 146 142 143 144 144 152 133 120 119 120 120 120 120 123 100 108 96 76 48 25 338 338 5 349 355 346 312 279 312 322
119 123 134 144 143 143 147 127 118 112 104 92 75 72 85 88 77 75 75 77 44 34 359 351 346 351 353 351 340 327 325 303
128 123 109 118 143 145 142 133 124 115 119 122 116 103 101 132 115 101 84 89 52 37 9 321 307 304 337 327 330 322 316 296
141 149 149 136 116 129 141 138 137 140 139 136 122 125 108 92 89 92 99 103 89 52 339 301 306 296 287 291 302 297 305 298
157 152 140 124 113 121 127 140 142 135 136 136 136 144 133 117 128 136 209 167 174 223 253 330 322 301 328 329 326 321 321 333
142 139 146 133 131 127 138 154 149 149 155 154 148 137 116 110 72 9 37 21 67 46 44 293 330 343 337 327 337 349 347 354
173 154 143 139 130 127 138 152 163 144 149 146 136 141 147 134 137 123 335 19 28 9 352 334 5 326 329 334 341 355 31 38
138 143 148 149 166 166 150 146 139 131 141 151 157 158 164 163 166 149 132 189 306 320 331 18 337 334 0 4 20 7 14 45
141 153 151 164 171 153 153 160 158 155 158 161 164 171 168 168 158 161 151 187 235 321 328 333 333 3 17 39 110 153 305 313